Dania, FL

11:22 AM EDT on September 26, 2016 (GMT -0400)
Fort Lauderdale-Hollywood International

Weather History for KFLL - August, 2014

Change the Weather History Date:

Sunday, August 31, 2014

  Actual Average Record
Temperature  
Mean Temperature 87 °F 84 °F  
Max Temperature 91 °F 90 °F 97 °F (1914)
Min Temperature 82 °F 78 °F 69 °F (1923)
Degree Days  
Heating Degree Days 0 0  
Month to date heating degree days 0 0  
Since 1 June heating degree days 0 0  
Since 1 July heating degree days 0 0  
Cooling Degree Days 22 19  
Month to date cooling degree days 644 607  
Year to date cooling degree days 3310 3166  
Since 1 June cooling degree days 1775 1748  
Growing Degree Days 36 (Base 50)    
Moisture  
Dew Point 75 °F    
Average Humidity 71    
Maximum Humidity 82    
Minimum Humidity 59    
Precipitation  
Precipitation 0.16 in 0.28 in 2.31 in (1936)
Month to date precipitation 5.71 7.44  
Year to date precipitation 44.13 41.07  
Snow  
Snow 0.00 in - - ()
Month to date snowfall 0.0  
Since 1 June snowfall 0.0  
Since 1 July snowfall 0.0  
Snow Depth 0.00 in    
Sea Level Pressure  
Sea Level Pressure 30.08 in    
Wind  
Wind Speed 11 mph (ESE)    
Max Wind Speed 18 mph    
Max Gust Speed 21 mph    
Visibility 10 miles    
Events Rain    
T = Trace of Precipitation, MM = Missing Value Source: NWS Daily Summary

Daily Weather History Graph

Daily Weather History Graph

Search for Another Location

Airport or City:

Trip Planner

Search our weather history database for the weather conditions in past years. The results will help you decide how hot, cold, wet, or windy it might be!

Date:

Astronomy

Aug. 31, 2014 Rise Set
Actual Time 7:00 AM EDT 7:41 PM EDT
Civil Twilight 6:36 AM EDT 8:04 PM EDT
Nautical Twilight 6:09 AM EDT 8:32 PM EDT
Astronomical Twilight 5:41 AM EDT 9:00 PM EDT
Moon 12:10 PM EDT (8/31) 11:31 PM EDT (8/31)
Length of Visible Light 13h 27m
Length of Day
12h 40m
Waxing Crescent, 32% of the Moon is Illuminated
Aug 31
Waxing Crescent
Sep 2
First Quarter
Sep 8
Full
Sep 15
Last Quarter
Sep 24
New

Hourly Weather History & Observations

Time (EDT) Temp. Heat Index Dew Point Humidity Pressure Visibility Wind Dir Wind Speed Gust Speed Precip Events Conditions
12:53 AM 87.1 °F 95.4 °F 73.9 °F 65% 30.10 in 10.0 mi SE 10.4 mph - N/A   Scattered Clouds
1:53 AM 84.9 °F 89.4 °F 70.0 °F 61% 30.10 in 10.0 mi SSE 12.7 mph - N/A   Scattered Clouds
2:53 AM 84.9 °F 90.7 °F 72.0 °F 65% 30.07 in 10.0 mi East 5.8 mph - N/A   Scattered Clouds
3:53 AM 86.0 °F 93.8 °F 73.9 °F 67% 30.07 in 10.0 mi ESE 9.2 mph - N/A   Scattered Clouds
4:53 AM 84.9 °F 94.1 °F 75.9 °F 74% 30.07 in 7.0 mi East 12.7 mph - 0.03 in Rain Rain
5:53 AM 82.9 °F 93.8 °F 79.0 °F 88% 30.08 in 10.0 mi East 6.9 mph - 0.03 in   Scattered Clouds
6:53 AM 84.0 °F 92.6 °F 75.9 °F 76% 30.09 in 10.0 mi East 10.4 mph - N/A   Scattered Clouds
7:53 AM 84.0 °F 96.0 °F 79.0 °F 85% 30.09 in 10.0 mi East 10.4 mph - 0.10 in   Scattered Clouds
8:53 AM 86.0 °F 96.0 °F 75.9 °F 72% 30.09 in 10.0 mi East 17.3 mph - N/A   Scattered Clouds
9:53 AM 87.1 °F 97.3 °F 75.9 °F 69% 30.11 in 10.0 mi East 17.3 mph - N/A   Scattered Clouds
10:53 AM 89.1 °F 100.2 °F 75.9 °F 65% 30.11 in 10.0 mi East 13.8 mph - N/A   Scattered Clouds
11:53 AM 90.0 °F 100.2 °F 75.0 °F 61% 30.11 in 10.0 mi East 12.7 mph - N/A   Partly Cloudy
12:53 PM 90.0 °F 101.3 °F 75.9 °F 63% 30.11 in 10.0 mi East 13.8 mph - N/A   Scattered Clouds
1:53 PM 91.0 °F 102.9 °F 75.9 °F 61% 30.10 in 10.0 mi East 13.8 mph 19.6 mph N/A   Scattered Clouds
2:53 PM 90.0 °F 100.2 °F 75.0 °F 61% 30.08 in 10.0 mi ESE 9.2 mph - N/A   Scattered Clouds
3:53 PM 90.0 °F 100.2 °F 75.0 °F 61% 30.06 in 10.0 mi ESE 16.1 mph - N/A   Scattered Clouds
4:53 PM 90.0 °F 100.2 °F 75.0 °F 61% 30.05 in 10.0 mi ESE 17.3 mph - N/A   Partly Cloudy
5:53 PM 89.1 °F 98.0 °F 73.9 °F 61% 30.05 in 10.0 mi East 16.1 mph - N/A   Partly Cloudy
6:53 PM 82.0 °F 86.7 °F 72.0 °F 71% 30.06 in 9.0 mi East 5.8 mph - 0.00 in Rain Light Rain
7:53 PM 86.0 °F 93.8 °F 73.9 °F 67% 30.06 in 10.0 mi ESE 8.1 mph - 0.00 in   Partly Cloudy
8:53 PM 86.0 °F 93.0 °F 73.0 °F 65% 30.07 in 10.0 mi ESE 11.5 mph - N/A   Partly Cloudy
9:53 PM 84.9 °F 94.1 °F 75.9 °F 74% 30.08 in 10.0 mi ESE 9.2 mph - N/A   Partly Cloudy
10:53 PM 84.9 °F 94.1 °F 75.9 °F 74% 30.09 in 10.0 mi ESE 9.2 mph - N/A   Partly Cloudy
11:53 PM 84.9 °F 93.3 °F 75.0 °F 72% 30.09 in 10.0 mi East 9.2 mph - N/A   Partly Cloudy